Showing default

IRIDE-MS2-HEO-9, 64585

Orbit data source: Space-Track

IRIDE-MS2-HEO-9, 64585 is an Italian payload satellite in SSO that was launched on Mon, 23 Jun 2025 UTC via an FALCON 9 launch vehicle from the Air Force Western Test Range (AFWTR). Payload-class satellites include a variety of spacecraft equipped with specific instruments for various scientific and technological missions. These include communications satellites like Starlink; space stations such as the ISS; scientific satellites like the Hubble; Earth observation satellites from companies like Planet Labs, Umbra, and HawkEye 360; GPS; miniature CubeSats for education and research; and military/defense satellites.

Loading next visibility...
Identifier
64585, 2025-135BK
Orbit
SSO
Country
Flag of ITIT
Related business
Manufacturer
ArgoTec
Mission
Operational Civil Imaging
Bus & Motor
HAWK, Unknown motor
Mass
65 kg wet, 65 kg dry
Launch date (UTC)
2025-06-23 (8 months ago)
Launch vehicle
FALCON 9
Launch site
Air Force Western Test Range (AFWTR)
Object type
Payload
Rocket body
Debris
Shape & HBR
Box + 2 Pan, 3.0 m
Radar Cross Section
0.683 m², Medium (>0.1 m² and < 1m²)

Expand to show TLE details & history
Last TLE update: 7 hours ago

TLE from 7 hours ago
0 IRIDE-MS2-HEO-9
1 64585U 25135BK  26046.27338105  .00003848  00000-0  36709-3 0  9992
2 64585  97.7617 162.2895 0004938  49.5968 310.5682 14.93907793 35707
Epoch: 2026-02-15T06:33Z
TLE epoch observation values (Epoch: 2026-02-15T06:33:40.122Z)
Latitude
-0.00005°
Longitude
-81.41212°
Altitude
586.574 km
Speed
7.568 km/s
True Right ascension
10h 49m 09s
True Declination
0° 00' 00"
Sunlit
Object was in full shadow at epoch
Visualization orbit readout
Latitude
Unknown
Longitude
Unknown
Altitude
Unknown
Speed
Unknown
Apparent Right ascension
Unknown
Apparent Declination
Unknown
Sunlit
N/A
Visualization observer readout
Local Sidereal Time
16:36:50
Azimuth
Unknown
Elevation
Unknown
Doppler factor
Unknown
Orbital elements
Apogee altitude
586.218 km
Perigee altitude
579.344 km
Semi-major axis
6,960.918 km
Eccentricity
0.00049
Inclination
97.7617°
RAAN
162.2895°
Arg. of periapsis
49.5968°
True anomaly
310.5252°
Mean anomaly
310.5682°
Eccentric anomaly
310.5467°
Mean motion
3.73717 °/min
Orbital period
96.33 mins
BSTAR
0.00036709
Loading maneuver chart data...
Computing Atmospheric mass density...
Loading historical data...
Loading historical data...
Loading historical data...
Loading historical data...
Loading historical data...
Loading historical data...
Loading historical data...

Documentation

Showing up to 5 results
|